RH
51 69 67 78 78 72 77 46 17 32 91 99 99 78 46 30 25 23 23 19 14 8 5 4 5 4 5 5 5 5 5 6 6 6 6 7 7 7 8 8 8 8 8 8 8
26 24 27 64 87 91 99 74 56 15 60 89 99 98 76 48 32 27 25 24 20 15 8 5 5 5 5 5 6 6 6 6 6 6 6 6 6 6 6 6 7 6 5 4 4
52 42 35 24 100 100 98 100 79 31 17 79 96 100 99 75 46 32 29 28 25 22 15 9 5 5 5 5 5 5 6 6 6 5 5 5 5 5 5 6 6 6 5 5 5
73 77 73 44 94 100 100 100 91 36 22 19 100 100 98 98 75 42 33 32 29 26 22 17 10 6 5 5 5 5 5 5 5 5 5 5 5 5 5 5 5 6 6 6 6
86 93 100 100 97 100 100 98 95 81 25 24 30 100 100 97 93 73 39 37 35 31 28 24 19 13 8 6 6 5 5 5 5 5 5 5 5 5 6 5 6 6 6 6 7
84 96 93 100 100 68 67 58 39 84 50 24 25 58 100 100 96 96 74 44 38 37 34 32 29 25 20 13 9 8 7 6 6 6 6 8 8 8 8 8 7 7 7 7 7
97 94 90 86 63 47 25 24 24 40 58 28 26 25 76 100 93 100 98 87 44 41 41 39 38 35 31 27 23 19 15 12 10 9 9 11 14 13 12 11 11 10 10 9 9
100 100 88 62 34 32 33 28 23 22 30 30 29 25 24 96 99 99 100 98 86 49 47 45 44 43 40 36 32 29 26 24 22 19 18 17 16 13 14 14 14 13 14 17 17
100 98 92 71 54 32 33 25 23 37 60 41 29 25 40 95 100 100 98 100 99 90 62 52 51 51 48 45 40 35 32 29 26 25 23 23 24 24 24 27 30 30 29 30 29
41 67 69 80 42 27 26 29 63 100 98 46 36 26 88 96 99 99 99 97 97 92 94 88 65 60 56 53 48 44 40 37 34 32 32 32 38 43 38 39 36 32 27 24 21
36 43 38 28 29 50 84 85 98 98 94 71 100 72 99 95 100 99 98 99 98 98 96 98 96 91 84 80 66 56 50 45 42 40 42 46 46 39 33 26 20 16 11 9 8
78 85 50 44 49 64 84 100 93 100 82 100 100 100 100 100 97 98 100 99 93 95 91 96 99 99 95 94 93 91 83 68 58 54 50 39 28 22 15 10 8 8 9 10 11
66 36 39 41 44 58 88 99 99 100 100 100 100 100 100 100 99 99 100 99 92 95 94 93 99 97 90 94 92 85 78 67 53 39 26 18 12 9 10 11 14 20 28 36 42
78 90 99 100 94 96 96 100 100 100 100 100 100 100 100 100 100 100 100 100 97 97 98 95 92 89 86 80 75 62 55 39 27 17 11 9 8 13 17 24 29 37 52 59 70
77 89 100 74 70 86 96 100 100 100 100 100 100 99 95 93 94 97 98 95 94 100 99 100 99 91 82 70 57 46 30 19 11 10 16 22 23 32 32 36 41 44 59 70 73
83 88 81 55 67 93 98 100 96 96 97 100 100 100 100 100 97 98 100 99 100 100 99 94 88 77 66 50 36 24 14 10 18 28 28 33 40 37 38 46 47 44 50 67 67
73 83 97 90 85 81 73 74 78 69 98 100 100 100 100 100 100 100 100 98 92 87 83 73 59 48 38 27 18 11 16 30 33 37 47 48 41 41 61 58 60 52 54 67 60
60 65 71 84 98 82 69 77 63 81 88 98 100 100 100 98 95 95 89 79 72 58 53 44 32 30 21 16 17 25 46 43 45 47 45 44 52 57 60 61 64 63 66 68 78
32 32 40 59 66 71 80 64 72 86 94 92 89 96 96 88 75 69 60 52 46 40 30 23 20 15 20 24 46 52 46 48 49 45 50 58 60 66 70 69 69 76 77 72 81
18 22 31 40 56 49 43 34 50 54 58 62 58 57 54 49 46 42 34 30 21 20 19 21 27 37 49 53 52 54 56 55 50 52 57 62 70 71 79 84 83 85 86 92 95
21 16 28 50 50 36 21 20 20 28 34 34 36 33 31 31 28 28 22 19 26 31 40 49 56 60 70 68 63 58 57 59 63 56 60 57 59 62 69 71 74 72 73 71 69
26 23 29 36 40 28 27 27 27 27 28 26 26 32 38 40 39 41 44 57 68 75 79 78 75 70 52 36 26 21 20 23 26 29 35 40 39 36 34 43 53 65 61 60 56
28 28 35 44 32 30 32 34 35 38 42 46 48 55 67 74 71 77 74 71 71 58 49 45 26 16 12 10 9 8 7 7 12 14 15 16 15 13 11 13 17 22 23 26 30
24 29 36 40 33 37 35 41 43 48 56 66 73 76 75 74 72 68 66 57 36 24 16 12 10 9 9 9 8 7 6 5 6 6 6 7 8 6 6 7 8 8 9 9 9
17 16 20 23 26 31 32 31 35 38 41 44 47 50 43 42 44 34 28 22 18 14 11 10 9 10 9 6 5 5 5 5 5 6 6 5 5 7 9 9 9 10 11 12 12
8 10 10 12 14 15 19 19 18 18 20 21 23 24 21 17 14 12 12 11 11 11 12 11 9 6 5 5 5 6 6 6 6 6 7 9 11 13 14 15 15 15 15 15 14
9 8 7 6 8 10 11 11 12 12 14 14 13 13 14 15 16 15 15 14 13 8 7 6 6 7 8 9 9 9 11 11 10 11 12 12 13 13 13 14 14 14 15 15 15
Wind_Speed
44 48 53 52 51 52 50 51 48 62 65 61 64 64 67 62 59 56 52 48 46 44 41 38 34 33 30 28 28 28 27 26 25 25 24 25 25 25 25 24 25 25 26 28 27
41 42 42 45 50 52 50 49 48 49 62 62 55 63 64 62 60 58 54 51 48 47 45 41 39 37 33 32 32 31 30 29 28 28 28 27 27 26 25 26 27 26 26 25 26
38 39 43 43 42 45 49 45 47 45 46 59 62 54 63 63 62 59 56 53 50 48 47 45 43 41 38 37 35 35 34 31 32 31 31 30 30 30 30 32 31 30 30 29 29
28 27 33 37 35 36 37 39 42 42 40 47 56 57 53 62 63 61 58 54 52 50 48 47 46 44 42 40 38 38 38 37 36 35 35 35 36 36 37 37 36 36 35 36 36
13 16 16 16 30 29 29 30 34 39 40 38 50 51 52 52 57 60 58 55 53 51 50 48 47 46 45 43 43 42 41 40 39 39 39 40 41 42 43 42 41 40 41 41 41
9 10 9 12 17 23 24 25 27 34 37 39 35 51 48 47 49 54 56 56 55 52 51 49 46 45 45 45 45 43 43 43 43 43 42 43 44 44 45 44 44 44 45 46 46
6 4 1 6 10 16 18 18 12 29 36 37 36 34 50 47 45 46 53 54 54 53 51 49 46 44 43 42 43 42 42 43 43 44 45 45 44 45 45 45 46 47 49 50 51
4 1 4 7 9 8 10 11 15 22 31 35 36 30 34 43 43 42 47 52 53 51 49 47 45 42 41 41 40 40 41 42 40 42 42 43 43 44 44 46 48 50 52 53 55
5 6 10 9 9 8 10 11 18 27 27 29 35 33 36 42 43 47 36 41 48 51 45 45 42 40 39 39 38 38 38 38 39 39 40 41 40 42 44 44 47 50 53 56 57
10 6 2 3 9 6 7 11 22 25 29 28 28 37 37 37 39 43 42 39 40 42 46 41 39 37 37 36 35 35 36 36 37 35 37 37 37 40 44 45 47 49 51 54 56
12 8 3 2 2 7 10 20 36 28 27 34 40 34 39 31 28 35 52 47 39 35 35 39 41 40 38 35 32 31 33 33 34 34 33 35 34 36 39 41 44 47 51 55 59
33 26 19 13 11 10 11 21 33 24 36 42 39 34 40 32 24 26 31 31 29 28 27 29 30 31 34 37 38 38 37 36 36 36 33 31 31 34 38 42 46 50 53 55 58
30 27 21 17 16 18 24 22 27 30 33 38 43 38 35 28 29 29 25 20 19 18 19 19 21 22 23 29 31 31 29 27 25 25 26 27 30 34 37 40 38 38 43 46 50
43 37 37 32 25 25 28 30 38 38 41 36 41 38 28 26 28 34 26 23 20 20 20 20 20 20 20 19 19 19 19 19 20 21 26 29 31 33 29 26 32 37 40 40 39
44 47 44 49 43 42 44 38 38 44 46 42 36 30 23 24 24 23 22 22 21 20 19 17 19 19 19 19 18 16 16 17 20 22 20 25 24 20 23 26 30 33 34 30 31
43 47 49 46 42 41 41 42 41 39 37 32 33 29 27 28 25 23 22 23 21 20 20 19 19 18 17 15 14 14 15 16 13 12 14 16 17 19 25 31 27 25 25 27 22
39 40 44 40 36 33 38 38 37 38 36 34 27 23 22 24 24 23 22 20 16 16 16 15 14 13 13 12 12 10 8 8 9 10 14 16 18 22 21 24 24 21 16 15 10
43 42 40 42 40 27 27 30 29 30 28 28 26 23 23 22 19 19 17 16 15 14 12 13 12 10 9 8 6 7 6 7 9 11 12 15 15 18 22 22 22 21 19 11 9
40 41 41 40 40 39 33 29 29 29 29 28 23 22 21 20 18 19 19 17 15 13 11 9 8 6 9 8 7 5 4 5 8 10 10 11 13 17 17 19 16 14 11 9 9
37 37 36 33 33 37 35 35 35 32 31 28 28 27 23 21 20 19 18 16 14 13 12 12 11 10 7 5 4 3 2 4 4 5 8 10 11 11 17 17 17 17 17 16 10
29 32 36 34 30 31 31 33 31 30 27 26 26 24 21 18 16 15 15 17 17 15 15 13 11 10 8 8 7 4 5 3 4 5 6 9 11 13 15 14 16 17 16 17 17
35 39 42 37 31 32 32 33 33 31 28 28 28 28 27 26 26 23 21 18 16 14 14 14 13 14 12 11 10 8 7 6 6 5 5 8 9 11 12 12 13 15 13 13 11
39 41 41 36 37 38 35 34 33 32 30 27 26 23 22 21 21 20 19 18 17 16 17 17 15 13 10 7 6 6 7 5 4 5 8 10 12 14 14 11 12 14 14 14 15
36 36 35 34 33 33 33 32 31 29 28 27 26 25 24 23 21 20 19 18 17 17 15 12 9 7 6 8 9 8 7 5 5 8 10 10 11 12 11 11 11 10 12 15 17
28 29 31 31 31 31 31 31 30 29 28 26 25 23 22 21 19 17 16 14 12 10 9 9 11 12 14 12 9 7 6 5 3 4 6 7 9 11 12 13 13 14 15 15 16
23 22 23 23 23 23 23 24 24 24 23 22 21 20 18 16 15 13 11 9 8 9 11 11 13 11 7 8 8 9 9 9 8 8 8 10 12 13 14 15 16 16 16 16 16
24 24 24 22 18 17 17 17 16 15 15 13 12 10 9 8 6 5 5 6 8 8 7 7 8 9 10 10 10 8 11 11 12 13 14 15 16 17 18 18 18 18 18 18 18
Wind_Direction
268 263 256 256 254 253 251 244 241 235 235 234 229 229 231 222 222 219 221 223 224 224 224 222 218 222 222 223 219 218 218 222 223 228 230 233 237 241 245 247 250 250 251 254 254
267 266 265 258 251 250 248 242 243 234 230 228 230 226 227 227 221 220 217 219 221 222 222 222 221 223 222 222 223 225 227 229 229 233 237 240 240 244 248 250 251 251 252 254 259
270 266 267 254 247 243 243 236 237 236 228 225 226 226 225 224 223 219 218 216 217 221 221 220 221 222 222 223 227 230 232 231 235 239 242 247 250 254 255 257 256 254 256 258 260
281 268 257 242 238 243 237 228 229 229 229 223 219 220 222 226 221 218 219 217 216 218 220 220 221 222 221 224 225 231 235 236 240 244 248 253 256 258 261 260 261 262 261 262 262
263 260 249 230 226 232 230 228 228 224 222 219 216 214 214 224 225 218 216 219 218 217 220 221 221 223 225 226 229 231 236 240 243 247 250 254 258 261 262 264 264 266 267 267 267
261 238 259 240 214 217 220 217 218 222 217 214 209 211 209 213 222 221 216 215 218 218 219 221 222 225 228 230 233 237 240 243 247 250 253 258 261 262 264 266 268 268 269 271 270
161 70 161 189 191 192 199 205 218 211 214 206 205 207 207 208 214 218 218 214 219 218 220 222 224 227 230 234 237 240 244 248 251 254 257 259 261 263 265 267 268 269 270 271 271
144 272 201 161 176 209 234 235 236 202 198 199 203 201 205 202 208 213 218 217 214 221 221 223 225 228 232 236 239 243 247 250 253 257 260 263 266 266 269 272 274 274 274 275 274
33 257 220 209 226 221 240 247 203 180 186 190 197 195 196 195 204 207 193 207 217 217 221 224 227 230 234 238 242 246 250 254 256 260 263 266 270 273 274 275 277 277 277 277 277
6 18 76 177 207 257 235 215 179 160 173 178 180 186 182 191 203 202 196 201 203 213 216 215 225 231 235 239 244 248 253 255 260 262 267 270 275 279 279 281 281 281 281 281 280
44 13 339 288 156 149 162 172 160 143 157 159 156 172 173 185 193 194 205 216 225 225 226 230 229 231 237 242 247 253 256 260 263 268 272 277 278 280 282 281 281 281 280 278 277
44 56 57 64 79 122 133 126 164 141 152 143 160 156 168 180 188 190 194 204 211 215 219 224 230 237 243 247 250 253 256 260 266 272 275 275 277 280 279 281 282 282 284 285 285
59 72 79 87 117 131 125 116 143 134 152 144 154 153 160 157 167 157 172 177 191 196 201 210 221 229 239 246 251 256 259 259 259 264 269 272 274 277 280 284 289 292 292 293 289
64 69 69 76 88 104 110 115 119 121 135 138 148 154 156 142 159 171 176 182 196 204 200 203 212 218 222 226 233 236 243 251 260 266 271 276 276 282 285 288 291 293 300 296 291
61 70 78 77 91 103 112 110 113 119 118 127 135 140 162 174 161 165 179 189 194 197 201 199 202 205 207 212 219 232 239 249 261 274 277 282 283 287 293 290 295 307 326 311 295
70 72 76 88 96 95 95 105 111 119 122 134 135 134 141 155 164 167 168 168 171 176 180 183 188 195 203 211 218 229 244 262 277 281 281 286 291 292 295 296 293 318 335 333 312
60 63 69 86 91 94 93 99 108 110 120 131 132 134 137 138 145 149 152 158 162 167 169 175 180 185 195 207 221 245 259 267 271 279 285 297 303 304 316 318 315 300 314 352 28
57 58 61 64 72 88 99 105 102 99 120 129 126 125 126 134 128 132 134 137 138 147 160 165 170 182 196 209 214 226 249 272 291 293 290 303 316 318 329 323 316 310 285 304 340
61 63 61 65 72 75 88 95 93 93 101 113 120 116 117 116 119 124 125 129 137 145 147 143 154 166 175 178 204 225 274 286 284 286 308 323 324 333 340 339 336 330 324 275 304
58 65 70 72 71 72 73 75 81 86 92 99 100 101 105 110 116 118 120 123 125 133 138 142 148 156 154 152 140 190 220 276 307 336 339 354 356 11 8 20 31 37 54 51 39
51 61 68 71 76 76 83 86 82 86 90 94 96 98 102 108 110 114 118 122 125 129 135 141 142 139 141 132 129 111 96 79 59 38 22 23 31 30 35 21 16 23 25 28 30
66 70 72 71 74 80 84 86 88 89 90 93 97 101 103 106 109 115 118 120 124 125 123 121 119 118 113 111 101 84 70 60 57 47 22 14 10 356 355 8 12 0 13 14 19
71 72 74 76 82 83 86 87 90 93 95 97 99 102 103 106 109 114 115 114 110 107 107 110 106 105 96 75 45 11 352 338 331 333 331 331 332 330 323 329 337 337 337 341 344
65 68 71 77 77 79 79 82 83 85 88 91 93 97 97 99 103 107 109 108 106 105 101 94 82 59 27 0 344 331 334 328 293 298 310 317 327 337 344 343 339 340 344 344 347
61 61 66 70 70 74 74 75 78 79 81 83 85 87 87 91 94 96 99 101 94 73 55 31 14 1 351 347 358 13 28 30 16 344 349 351 349 350 350 346 346 344 342 342 341
56 55 59 63 67 70 70 71 71 70 72 74 76 78 76 73 72 73 70 56 36 18 6 359 348 348 16 38 41 43 37 32 25 14 358 346 339 337 334 332 330 329 329 329 328
52 55 57 55 55 57 61 60 55 59 64 63 61 57 60 54 51 39 18 0 350 345 341 3 35 26 24 21 13 2 358 351 349 346 342 339 336 333 331 329 327 326 326 326 326